Temperature
8 7 7 7 7 7 6 6 6 6 6 5 5 5 5 5 4 4 4 4 3 3 3 3 3 3 3 2 2 2 2 2 1 2 2 2 2 2 2 2 2 2 2
7 7 6 6 6 6 6 6 6 5 5 5 5 5 4 4 4 3 3 3 3 3 3 3 3 2 2 2 2 2 2 1 1 1 2 2 2 2 2 2 2 2 2
6 6 6 6 6 6 5 5 5 5 5 5 4 4 4 4 3 3 3 3 3 2 2 2 2 2 2 2 2 2 1 1 1 1 1 1 1 1 1 2 2 2 2
5 5 5 5 5 5 5 5 4 4 4 4 4 3 3 3 3 3 2 2 2 2 2 2 2 2 1 1 1 1 1 1 1 1 1 1 1 1 1 1 1 2 2
5 5 5 5 4 4 4 4 4 4 4 3 3 3 3 3 2 2 2 2 1 2 2 1 1 1 1 1 1 1 1 1 1 1 0 0 1 1 1 1 1 1 1
4 4 4 4 4 4 4 4 3 3 3 3 3 2 2 2 2 2 2 1 1 1 1 1 1 1 1 1 1 1 0 0 0 0 0 0 0 0 0 1 1 0 1
4 4 4 4 3 3 3 3 3 3 3 2 2 2 2 2 1 1 1 1 1 1 1 1 1 1 1 1 1 0 0 0 0 -0 -0 -0 -0 -0 -0 0 0 0 0
3 3 3 3 3 3 3 2 2 2 2 2 2 1 1 1 1 1 1 1 0 0 0 0 -0 -0 0 0 0 0 0 0 -0 -0 -0 -0 -0 -0 -0 -0 0 0 0
2 2 2 2 2 2 2 2 2 1 1 1 1 1 1 1 1 1 0 0 0 0 -0 -0 -0 -1 -0 -1 -0 -0 -0 -0 -0 -0 -0 -0 -0 -0 -0 -0 -0 -0 0
2 2 2 2 2 1 1 1 1 1 1 0 0 0 0 0 0 -0 -0 -0 -0 -0 -0 -0 -1 -1 -1 -1 -1 -1 -1 -1 -1 -0 -0 -0 0 0 0 -0 -0 -0 -0
1 1 1 1 1 1 1 0 0 0 -0 -0 -0 -0 -0 -0 -0 -0 -1 -1 -1 -1 -1 -1 -1 -1 -1 -1 -1 -1 -1 -1 -1 -1 -1 -0 -0 0 -0 -0 -0 -0 -0
1 1 1 1 0 0 -0 -0 -0 -0 -1 -1 -1 -1 -1 -1 -1 -1 -1 -1 -1 -1 -1 -1 -1 -1 -1 -1 -1 -1 -1 -1 -1 -1 -1 -1 -0 -0 -0 -0 -0 -0 -0
0 0 0 -0 -0 -1 -1 -1 -1 -1 -2 -2 -2 -1 -1 -1 -1 -1 -1 -1 -2 -2 -2 -2 -2 -2 -2 -1 -1 -2 -2 -1 -1 -1 -1 -1 -1 -1 -1 -1 -1 -1 -1
-1 -1 -1 -1 -1 -1 -1 -2 -2 -2 -2 -2 -2 -2 -2 -2 -2 -2 -2 -2 -2 -2 -2 -2 -2 -2 -2 -2 -2 -2 -2 -2 -2 -2 -2 -1 -1 -1 -1 -1 -1 -1 -1
-1 -1 -1 -2 -2 -2 -2 -2 -3 -3 -3 -3 -3 -3 -3 -2 -2 -2 -2 -2 -2 -2 -2 -2 -2 -2 -2 -2 -2 -2 -2 -2 -2 -2 -2 -2 -2 -1 -1 -1 -1 -1 -1
-2 -2 -2 -2 -3 -3 -3 -3 -3 -3 -3 -3 -3 -3 -3 -3 -3 -3 -3 -3 -3 -3 -3 -3 -3 -3 -3 -3 -3 -3 -3 -3 -3 -2 -2 -2 -2 -2 -2 -2 -2 -2 -2
-3 -3 -3 -3 -3 -4 -4 -4 -3 -3 -3 -3 -3 -3 -3 -3 -3 -3 -3 -3 -3 -3 -3 -3 -3 -3 -3 -3 -3 -3 -3 -3 -3 -3 -2 -2 -2 -2 -2 -2 -2 -2 -2
-4 -4 -4 -4 -4 -4 -4 -4 -5 -4 -4 -4 -4 -4 -4 -4 -4 -4 -4 -4 -4 -4 -4 -4 -4 -4 -4 -4 -3 -3 -3 -3 -3 -3 -3 -3 -2 -2 -2 -2 -2 -2 -2
-5 -5 -5 -5 -5 -5 -5 -5 -5 -5 -5 -5 -4 -4 -4 -4 -4 -4 -4 -4 -4 -4 -4 -4 -4 -4 -4 -4 -4 -3 -3 -3 -3 -3 -3 -3 -3 -2 -2 -2 -2 -2 -2
-5 -5 -6 -6 -6 -6 -6 -6 -6 -6 -6 -6 -5 -5 -5 -5 -4 -4 -4 -5 -5 -5 -5 -4 -4 -4 -4 -4 -4 -4 -3 -3 -3 -3 -3 -3 -3 -3 -2 -2 -2 -2 -2
-6 -6 -6 -6 -6 -6 -6 -6 -7 -7 -6 -6 -6 -6 -6 -6 -5 -5 -5 -5 -5 -5 -5 -5 -4 -4 -4 -4 -4 -4 -4 -3 -3 -3 -3 -3 -3 -3 -3 -2 -2 -2 -2
-7 -7 -7 -7 -7 -7 -7 -7 -7 -7 -7 -7 -6 -6 -6 -6 -6 -6 -5 -5 -5 -5 -5 -5 -4 -4 -4 -4 -4 -4 -4 -3 -3 -3 -3 -3 -3 -3 -2 -2 -2 -2 -2
-7 -7 -7 -7 -7 -7 -7 -7 -7 -7 -7 -7 -7 -7 -6 -6 -6 -6 -6 -5 -5 -5 -5 -5 -4 -4 -4 -4 -4 -4 -4 -3 -3 -3 -3 -3 -3 -3 -2 -2 -2 -2 -2
-8 -8 -8 -8 -8 -8 -8 -8 -8 -8 -7 -7 -7 -7 -7 -7 -6 -6 -6 -5 -5 -5 -5 -5 -5 -5 -4 -4 -4 -4 -4 -3 -3 -3 -3 -3 -3 -3 -3 -2 -2 -2 -3
-8 -8 -8 -8 -8 -8 -8 -8 -8 -8 -8 -8 -7 -7 -7 -7 -7 -6 -6 -6 -6 -5 -5 -5 -5 -5 -4 -4 -4 -4 -4 -3 -3 -3 -3 -3 -3 -3 -3 -3 -3 -3 -3
-9 -9 -9 -9 -9 -9 -8 -8 -8 -8 -8 -8 -8 -8 -7 -7 -7 -6 -6 -6 -6 -5 -5 -5 -5 -5 -4 -4 -4 -4 -4 -3 -3 -3 -3 -3 -3 -3 -3 -3 -3 -3 -3
Wind_Speed
5 4 3 2 2 2 2 3 2 2 2 3 3 3 3 4 4 3 4 5 5 6 6 6 7 7 6 5 5 5 6 6 10 10 7 7 7 9 11 11 12 11 12
4 4 3 2 2 1 2 2 2 3 3 3 3 3 4 4 4 4 5 6 6 7 7 7 8 7 7 6 5 6 6 6 8 11 9 7 8 9 9 10 10 10 10
4 3 2 2 1 2 2 2 2 3 3 3 3 4 4 5 5 5 6 6 6 7 7 8 8 8 8 7 7 7 6 7 6 8 10 8 7 8 8 9 9 7 9
3 3 2 2 2 2 2 2 2 3 3 3 4 4 5 5 5 6 6 6 7 7 7 8 8 8 9 9 7 7 7 7 7 7 8 8 7 7 6 7 9 6 7
3 2 2 2 2 1 1 2 2 2 3 3 4 4 4 5 5 6 6 6 7 7 7 7 8 10 12 10 8 7 6 6 7 7 7 7 8 7 7 6 8 8 7
2 2 1 1 1 1 1 1 2 3 3 3 4 4 5 5 9 10 7 6 6 7 8 8 8 9 11 13 14 13 10 8 7 7 7 8 9 8 7 7 7 7 6
1 1 1 1 1 1 2 2 2 3 3 4 4 5 6 7 11 11 10 6 6 6 7 7 8 9 11 8 11 12 11 12 11 8 8 9 9 8 8 8 7 7 7
1 1 0 1 1 2 2 2 3 3 3 4 4 5 6 8 11 12 12 6 6 6 7 7 8 9 9 9 8 8 7 7 8 7 7 9 8 8 7 7 7 6 5
1 1 1 1 2 2 2 3 3 3 3 4 4 5 6 8 11 12 11 5 5 6 6 7 7 8 12 12 8 7 7 7 8 9 10 11 12 12 9 5 5 4 5
1 1 2 2 1 2 3 3 3 3 4 5 5 5 6 7 10 12 11 4 5 6 5 6 9 9 12 11 6 6 7 7 7 7 8 9 8 8 8 4 4 4 4
1 2 2 2 2 2 2 3 3 4 4 4 6 6 5 7 9 11 11 5 5 5 5 5 6 11 11 11 8 5 8 7 5 5 5 5 5 5 5 4 3 3 3
2 2 2 2 2 3 3 3 3 3 4 4 5 6 5 6 8 9 11 9 7 5 5 5 6 10 10 10 8 8 9 7 3 4 4 5 5 5 5 4 4 3 2
2 2 2 3 3 3 3 3 3 3 3 4 4 5 6 5 6 10 11 11 10 6 5 7 8 9 9 7 7 9 7 4 3 3 4 4 4 4 4 4 4 3 4
2 2 2 2 3 3 3 3 3 3 4 4 5 5 6 6 5 5 5 6 7 6 5 7 8 8 6 6 7 5 4 3 3 3 4 4 4 3 3 3 3 3 3
2 2 3 2 3 3 4 3 4 4 5 5 5 5 6 6 7 9 6 4 4 4 5 4 4 4 4 4 4 4 3 3 3 3 3 3 3 3 3 3 2 2 2
2 2 2 3 3 3 4 5 7 7 9 10 9 8 7 9 11 9 9 9 8 7 5 3 4 4 4 4 4 4 4 4 3 3 3 3 3 3 3 3 2 2 2
3 3 3 3 3 3 4 4 6 7 9 9 10 10 10 10 10 9 8 8 7 6 3 3 3 3 4 4 4 4 4 4 3 3 3 2 2 2 2 2 2 2 2
3 4 4 3 3 4 4 4 4 5 6 6 7 10 10 10 9 9 8 6 4 4 3 3 3 3 4 4 4 4 4 3 3 3 3 2 2 2 1 1 2 2 2
4 3 3 3 3 4 4 4 4 5 5 5 5 6 9 9 8 8 7 3 3 4 4 3 3 3 3 3 3 3 3 3 3 2 2 2 1 1 1 1 1 3 3
4 7 6 4 3 4 4 4 4 4 4 4 5 5 5 5 4 5 4 3 3 4 4 4 4 4 4 3 3 3 2 2 2 2 2 2 1 1 1 1 1 2 2
4 5 7 5 4 4 4 4 4 4 4 4 4 5 7 4 4 4 4 4 4 4 4 4 4 4 4 3 3 3 2 2 2 2 1 1 1 1 0 1 2 2 2
4 4 4 4 4 4 4 3 4 4 4 5 5 5 8 5 4 4 4 4 4 4 4 4 4 4 4 3 3 2 2 2 2 1 1 1 1 1 1 2 2 2 3
4 4 4 4 3 5 5 3 3 4 4 4 4 5 5 4 4 4 5 4 4 4 4 3 4 4 4 4 3 2 2 2 1 1 0 0 0 1 1 2 3 3 3
3 4 4 4 3 3 3 3 4 4 4 4 4 4 4 4 4 5 5 4 4 4 4 4 4 4 5 4 3 3 2 1 1 1 1 0 1 1 2 2 3 3 3
3 3 3 3 3 3 3 3 4 4 4 4 4 4 4 4 4 4 4 4 4 5 5 5 4 4 4 4 3 3 2 1 1 1 1 1 2 2 3 3 3 4 3
3 3 3 3 3 3 3 3 4 4 4 4 4 4 4 4 4 4 4 4 4 4 5 5 5 5 5 4 3 3 2 1 1 2 3 2 3 3 3 3 4 4 4
Wind_Direction
149 149 145 163 169 170 192 215 225 237 246 250 260 272 281 286 289 290 290 292 294 298 297 293 291 292 287 283 278 273 271 269 281 291 288 295 294 297 303 302 296 293 296
152 147 149 152 152 180 220 234 231 238 247 252 262 272 279 286 286 283 288 292 290 293 293 291 290 295 292 286 279 275 275 270 274 290 297 299 295 296 296 299 303 302 297
145 145 145 158 178 213 240 248 245 247 259 266 268 271 278 282 283 282 280 284 283 284 286 287 289 292 292 290 282 280 280 280 272 282 292 294 295 298 302 302 300 298 304
145 152 170 196 209 223 239 252 255 253 260 266 271 271 277 282 282 280 282 284 285 285 284 283 284 283 282 285 284 279 282 284 281 281 288 294 296 299 302 305 310 312 311
145 165 200 219 224 226 241 260 276 279 280 273 278 283 284 283 278 284 285 287 289 294 293 289 288 290 291 289 290 287 284 283 287 289 292 298 302 309 307 301 304 312 309
149 177 201 213 234 242 252 268 290 294 296 293 285 283 286 289 296 299 301 289 291 294 296 299 300 295 299 300 296 295 293 287 287 288 292 296 299 301 302 303 304 312 309
133 148 195 215 249 265 275 286 282 283 297 297 292 288 285 290 301 303 304 299 285 282 286 294 300 303 307 297 295 296 293 292 287 284 285 287 292 294 297 298 299 300 294
84 59 328 282 284 293 283 274 278 287 287 287 291 292 292 297 307 308 306 298 283 281 283 285 288 295 298 300 298 295 292 292 291 286 277 282 287 290 285 283 283 291 293
47 8 338 317 301 297 287 281 289 292 294 289 288 291 296 302 310 311 311 292 288 287 287 288 291 288 301 307 305 298 299 299 303 298 297 299 301 303 303 303 304 305 306
341 326 329 323 310 292 286 292 299 295 292 293 293 292 291 297 309 315 313 291 290 293 296 294 297 302 309 311 305 299 299 303 312 316 317 319 315 313 315 300 281 283 295
329 347 346 341 320 301 304 309 305 306 305 303 300 298 294 298 309 314 316 307 288 294 298 300 300 310 313 316 316 304 298 310 313 314 316 320 323 325 324 318 300 274 273
1 357 350 341 333 338 328 319 315 310 307 306 307 308 303 301 308 310 315 315 309 296 293 296 303 314 316 317 320 321 323 327 321 320 322 326 330 330 329 331 329 328 306
5 355 341 336 333 328 317 312 316 313 305 305 306 306 310 308 306 311 312 314 315 310 298 306 313 318 323 325 328 329 332 329 324 323 322 319 316 312 320 332 343 355 10
6 340 332 331 326 322 317 308 305 303 301 302 304 303 306 308 306 305 303 307 313 315 314 317 324 327 331 329 330 334 336 327 321 313 314 318 322 330 337 337 345 355 29
343 327 323 319 309 310 310 298 296 282 286 296 289 289 297 300 305 315 318 312 312 308 319 322 331 334 337 337 338 337 336 337 337 331 330 330 333 340 341 346 355 10 35
333 324 317 314 310 307 307 313 313 309 311 310 307 302 296 301 312 317 322 323 323 326 328 320 321 322 322 324 325 327 329 330 329 328 331 331 331 340 344 352 10 32 45
318 310 309 314 311 308 305 305 312 322 321 318 318 317 314 316 318 321 323 324 323 329 325 313 311 310 311 313 313 315 317 319 322 324 324 323 331 340 347 359 14 41 55
322 312 312 300 296 295 295 297 298 304 313 317 322 325 325 325 325 326 327 330 327 331 322 309 306 305 305 305 305 308 311 317 322 322 323 328 334 340 353 4 19 45 62
318 309 304 299 295 293 296 297 297 296 300 308 316 322 327 328 329 330 335 332 315 312 311 308 305 303 301 301 299 298 299 306 313 316 323 329 336 357 359 10 37 53 61
311 312 313 306 298 297 297 296 298 302 306 309 311 314 323 327 330 329 329 321 312 306 304 303 304 302 299 296 294 294 296 304 310 314 322 330 343 356 359 61 67 67 68
303 304 309 307 300 295 296 298 302 303 303 305 306 311 321 322 315 313 314 315 310 305 304 302 301 299 299 296 291 285 286 291 296 302 315 335 353 354 40 86 77 76 87
293 295 299 297 300 301 303 302 304 305 306 308 311 316 321 322 316 312 312 312 310 304 300 297 297 295 293 290 288 286 282 283 291 301 327 341 341 20 80 90 87 89 94
292 294 296 295 298 303 310 312 310 308 307 308 310 314 317 317 315 313 313 315 316 313 311 305 301 304 302 296 286 276 270 269 269 263 266 289 347 70 98 102 100 95 93
290 289 292 296 301 302 304 307 307 307 308 310 311 311 311 312 314 315 317 318 318 319 318 314 305 303 307 314 311 301 285 271 272 240 199 148 95 94 99 99 95 97 97
290 290 291 292 295 297 298 299 301 303 306 308 310 312 315 317 318 320 322 322 322 322 323 323 322 319 318 320 321 320 325 11 30 61 111 116 108 101 103 99 99 97 92
297 296 294 291 290 289 291 296 300 303 304 306 309 312 314 316 318 320 322 325 327 327 327 329 329 331 331 330 331 343 1 50 72 77 102 111 113 110 110 107 106 102 99
Height
1482 1485 1486 1488 1490 1491 1491 1491 1491 1490 1489 1488 1487 1486 1484 1483 1481 1479 1477 1475 1473 1471 1468 1466 1463 1461 1458 1456 1454 1451 1449 1446 1440 1434 1433 1430 1427 1423 1419 1416 1412 1409 1406
1480 1482 1483 1485 1486 1487 1487 1488 1487 1486 1486 1484 1483 1481 1480 1478 1476 1474 1472 1470 1468 1466 1464 1461 1459 1456 1454 1451 1449 1446 1444 1441 1437 1431 1428 1425 1422 1419 1415 1412 1408 1405 1402
1477 1479 1480 1482 1482 1483 1484 1484 1483 1483 1481 1480 1479 1477 1475 1474 1472 1470 1468 1466 1464 1462 1459 1457 1454 1452 1448 1446 1444 1441 1439 1437 1434 1429 1424 1421 1418 1415 1411 1407 1404 1400 1397
1475 1476 1477 1478 1479 1480 1480 1480 1479 1478 1477 1476 1474 1473 1471 1469 1467 1465 1463 1461 1459 1457 1455 1453 1450 1447 1444 1442 1439 1437 1434 1432 1429 1425 1421 1417 1414 1411 1408 1403 1399 1396 1393
1472 1473 1474 1475 1476 1476 1476 1476 1475 1475 1473 1472 1470 1468 1467 1465 1463 1461 1459 1457 1455 1453 1450 1448 1446 1443 1440 1438 1435 1432 1430 1427 1424 1421 1417 1413 1410 1407 1404 1400 1397 1393 1390
1469 1470 1471 1472 1472 1473 1472 1472 1471 1470 1469 1468 1466 1464 1463 1461 1459 1457 1456 1453 1451 1448 1446 1443 1441 1438 1435 1433 1430 1428 1426 1423 1420 1417 1414 1410 1407 1404 1401 1398 1394 1391 1386
1466 1467 1468 1469 1469 1469 1469 1468 1467 1466 1465 1464 1462 1460 1458 1457 1455 1453 1451 1449 1447 1444 1441 1439 1436 1433 1431 1428 1425 1423 1421 1419 1417 1414 1410 1407 1404 1401 1398 1394 1392 1389 1385
1464 1465 1465 1465 1465 1465 1465 1464 1463 1462 1461 1460 1458 1456 1455 1453 1451 1449 1447 1445 1443 1440 1438 1435 1432 1429 1426 1424 1421 1418 1416 1414 1412 1410 1407 1404 1401 1398 1395 1392 1389 1386 1383
1462 1462 1462 1462 1462 1462 1461 1460 1459 1458 1457 1456 1454 1452 1450 1449 1447 1445 1443 1440 1438 1436 1433 1431 1428 1425 1423 1420 1417 1414 1411 1409 1408 1406 1403 1400 1397 1394 1391 1389 1386 1383 1379
1460 1460 1460 1460 1459 1458 1458 1457 1456 1455 1453 1452 1450 1449 1447 1445 1443 1441 1439 1436 1434 1431 1429 1426 1424 1422 1419 1416 1414 1410 1407 1405 1403 1401 1398 1396 1393 1390 1388 1386 1383 1381 1378
1458 1458 1458 1457 1456 1456 1455 1454 1453 1451 1450 1448 1447 1445 1443 1441 1439 1437 1435 1433 1430 1427 1424 1422 1420 1417 1415 1413 1410 1408 1405 1403 1400 1397 1394 1392 1389 1386 1384 1382 1380 1378 1376
1456 1455 1455 1454 1454 1453 1452 1450 1449 1448 1446 1444 1443 1441 1439 1438 1436 1433 1431 1429 1426 1424 1421 1418 1416 1414 1412 1409 1407 1405 1403 1400 1397 1394 1392 1389 1386 1384 1381 1380 1378 1376 1375
1453 1453 1452 1452 1451 1450 1449 1447 1446 1444 1443 1441 1439 1437 1435 1434 1432 1430 1427 1425 1422 1420 1417 1415 1413 1411 1408 1406 1404 1402 1400 1397 1395 1392 1389 1387 1385 1383 1380 1378 1376 1375 1374
1451 1450 1449 1449 1448 1447 1445 1444 1442 1441 1439 1438 1436 1434 1432 1430 1428 1426 1423 1421 1419 1416 1414 1411 1409 1407 1405 1403 1401 1399 1397 1395 1393 1390 1388 1386 1384 1382 1380 1378 1376 1375 1373
1448 1447 1447 1446 1444 1443 1442 1441 1439 1438 1437 1435 1433 1431 1429 1426 1425 1423 1421 1418 1416 1413 1411 1408 1406 1404 1402 1400 1398 1397 1395 1393 1391 1389 1387 1385 1383 1382 1380 1378 1377 1376 1374
1445 1444 1443 1442 1441 1440 1438 1437 1436 1435 1433 1431 1430 1428 1426 1424 1422 1420 1417 1415 1413 1411 1409 1406 1404 1402 1400 1398 1397 1395 1393 1391 1390 1388 1386 1384 1383 1381 1380 1379 1378 1377 1376
1442 1441 1440 1439 1437 1436 1435 1433 1431 1430 1429 1428 1426 1424 1422 1421 1418 1416 1414 1412 1410 1408 1406 1404 1402 1400 1399 1397 1395 1394 1392 1391 1389 1387 1385 1384 1383 1381 1380 1379 1378 1378 1377
1439 1438 1437 1436 1434 1433 1432 1430 1428 1426 1424 1422 1422 1420 1418 1417 1415 1413 1411 1409 1407 1405 1403 1402 1400 1399 1397 1395 1394 1393 1391 1390 1388 1386 1385 1384 1383 1381 1381 1380 1379 1379 1379
1436 1435 1434 1432 1431 1430 1428 1427 1425 1423 1421 1419 1417 1416 1415 1413 1411 1410 1408 1406 1404 1403 1401 1400 1398 1397 1395 1394 1393 1391 1390 1389 1387 1386 1384 1383 1382 1382 1381 1381 1381 1381 1380
1433 1432 1430 1429 1428 1427 1425 1423 1422 1420 1418 1416 1414 1413 1411 1410 1408 1406 1405 1404 1402 1400 1399 1397 1396 1394 1393 1392 1391 1389 1388 1387 1386 1385 1384 1383 1382 1382 1382 1382 1382 1382 1382
1429 1428 1427 1426 1424 1423 1422 1420 1419 1417 1415 1413 1412 1411 1410 1408 1406 1404 1403 1401 1400 1398 1397 1395 1393 1392 1391 1390 1389 1388 1387 1386 1385 1384 1383 1383 1383 1383 1383 1383 1383 1383 1384
1425 1424 1423 1422 1421 1420 1418 1417 1416 1414 1413 1411 1409 1408 1407 1405 1404 1402 1400 1399 1397 1396 1395 1393 1391 1390 1389 1388 1387 1386 1385 1384 1384 1384 1383 1383 1383 1383 1384 1384 1385 1385 1385
1422 1421 1420 1419 1418 1416 1415 1414 1413 1411 1410 1408 1407 1405 1404 1403 1401 1400 1398 1397 1395 1394 1392 1391 1389 1388 1387 1386 1385 1385 1384 1384 1383 1383 1383 1383 1384 1384 1385 1385 1386 1386 1387
1419 1418 1416 1415 1414 1413 1412 1411 1410 1409 1407 1406 1405 1403 1402 1401 1399 1398 1396 1395 1393 1392 1391 1389 1388 1387 1386 1385 1384 1384 1383 1383 1383 1384 1384 1384 1384 1385 1386 1387 1387 1388 1388
1415 1414 1413 1412 1411 1410 1409 1408 1407 1406 1405 1404 1403 1401 1400 1399 1397 1396 1395 1393 1392 1390 1389 1388 1387 1386 1385 1384 1383 1383 1383 1383 1384 1384 1384 1385 1386 1386 1387 1388 1389 1389 1390
1412 1411 1410 1409 1408 1407 1406 1405 1405 1404 1403 1402 1401 1400 1399 1397 1396 1395 1393 1392 1391 1389 1388 1387 1386 1385 1384 1384 1384 1384 1384 1384 1384 1385 1385 1386 1387 1388 1389 1389 1390 1391 1392